Location: Brusselsch Zeekanaal
(50.8667°N, 4.3667°E)
Time: 01:08:38
(UTC+00:00)

Cosmos 2219 Rocket - Pass Details

Date: 08 November 2025
Orbit: 825 x 847 km, 71.0° (Epoch: 13 December)

Event Time Altitude Azimuth Distance (km) Brightness Sun altitude
Exits shadow 02:55:11 35° 83° (E) 1,335 3.6 -36.3°
Drops below altitude 10° 02:59:20 10° 42° (NE) 2,476 5.2 -35.7°
Sets 03:01:56 0° 35° (NE) 3,417 6.0 -35.3°
